Hourly Data Report for October 01, 2017

All times are specified in Local Standard Time (LST). Add 1 hour to adjust for Daylight Saving Time where and when it is observed.

RESOLUTE BAY A
NUNAVUT

74°43'01.000" N
94°58'10.000" W
67.70 m
2403498
71924
YRB

Download Data

Hourly Data (October 2017)
Hourly Data Report for October 1, 2017
Temp Definition
°C
Dew Point Temp Definition
°C
Rel Hum Definition
%
Wind Dir Definition
10's deg

Wind Spd Definition
km/h
Visibility Definition
km
Stn Press Definition
kPa
Hmdx Definition


Wind Chill Definition


Weather Definition


TIME
00:00 Legend Double Dagger -11.1 -12.7 88 35 13 24.1 100.78   -18 Mainly Clear
01:00 Legend Double Dagger -10.8 -12.4 88 34 12 24.1 100.78   -17 LegendNANA
02:00 Legend Double Dagger -10.3 -11.8 89 32 8 24.1 100.78   -15 LegendNANA
03:00 Legend Double Dagger -8.3 -9.7 90 28 18 2.0 100.78   -15 Fog
04:00 Legend Double Dagger -8.7 -10.0 90 28 16 2.0 100.75   -15 Fog
05:00 Legend Double Dagger -8.7 -10.1 90 23 15 2.0 100.71   -15 Fog
06:00 Legend Double Dagger -8.9 -10.2 90 24 12 1.6 100.67   -15 Ice Crystals,Fog
07:00 Legend Double Dagger -8.6 -9.9 90 23 12 4.8 100.63   -14 Fog
08:00 Legend Double Dagger -8.3 -9.6 90 22 7 4.8 100.60   -12 Fog
09:00 Legend Double Dagger -7.7 -8.9 91 22 9 1.2 100.56   -12 Fog
10:00 Legend Double Dagger -6.9 -8.0 92 21 14 9.7 100.51   -13 Fog
11:00 Legend Double Dagger -5.8 -6.9 93 24 16 6.4 100.45   -12 Fog
12:00 Legend Double Dagger -5.3 -6.3 93 24 16 4.8 100.43   -11 Fog
13:00 Legend Double Dagger -4.8 -5.7 94 25 11 1.6 100.38   -9 Fog
14:00 Legend Double Dagger -4.7 -5.6 94 23 18 9.7 100.36   -11 Fog
15:00 Legend Double Dagger -4.7 -5.6 94 23 19 12.9 100.33   -11 Cloudy
16:00 Legend Double Dagger -4.8 -5.6 94 23 16 12.9 100.26   -11 LegendNANA
17:00 Legend Double Dagger -4.8 -5.6 94 22 18 12.9 100.23   -11 LegendNANA
18:00 Legend Double Dagger -4.9 -5.8 94 22 15 12.9 100.18   -10 Cloudy
19:00 Legend Double Dagger -5.0 -5.9 94 20 16 12.9 100.13   -11 Snow
20:00 Legend Double Dagger -5.1 -6.0 93 20 16 12.9 100.08   -11 Snow
21:00 Legend Double Dagger -4.9 -5.8 94 20 18 16.1 100.02   -11 Snow
22:00 Legend Double Dagger -4.7 -5.5 94 19 18 12.9 99.95   -11 Snow
23:00 Legend Double Dagger -4.6 -5.5 94 19 18 12.9 99.89   -11 Snow

Notes on Data Quality.

Legend

  • E = Estimated
  • M = Missing
  • NA = Not Available
  • ‡ = Partner data that is not subject to review by the National Climate Archives
Date modified: